Flag for China Weather past 2 weeks in Zhengzhou, Henan, China

Now
77 °F

Fog.


Feels Like: 79 °F
Forecast: 68 / 78 °F
Wind: 3 mph from South

Location: Zhengzhou Airport

Current Time: Sep 5, 2015 at 11:44:16 AM

Latest Report: Sep 5, 2015 at 11:00 AM


Visibility: 2 mi

Pressure: 29.80 "Hg

Humidity: 79%

Dew point: 70 °F

Location of ZhengzhouLocation

Historic Weather in Zhengzhou — Graph

°F

Zhengzhou temperature yesterday

Maximum temperature yesterday: 73 °F (at 12:00 AM)
Minimum temperature yesterday: 66 °F (at 12:00 PM)
Average temperature yesterday: 69 °F

Past Weeks' High & Low Weather Summary

 TemperatureHumidityPressure
High91 °F (Aug 22, 1:00 PM)100% (Aug 28, 5:00 AM)30.01 "Hg (Aug 28, 5:00 AM)
Low63 °F (Sep 5, 4:00 AM)40% (Aug 25, 4:00 PM)29.62 "Hg (Aug 22, 3:00 PM)
Average75 °F75%29.83 "Hg
* Reported Aug 21 10:00 AM — Sep 5 10:00 AM, Zhengzhou, Weather by CustomWeather, © 2015

Note: Actual official high and low records may vary slightly from our data, if they occured in-between our weather recording intervals... More about our weather records

Advertising

Zhengzhou weather history for previous 24 hours

 ConditionsComfort  
Time TempWeatherWind HumidityBarometerVisibility
10:00 AM
Sat, Sep 5
73 °FFog.1 mph83%29.80 "Hg1 mi
9:00 AM68 °FFog.3 mph100%29.80 "Hg1 mi
8:00 AM66 °FFog.3 mph100%29.80 "Hg1 mi
7:00 AM66 °FFog.1 mph94%29.80 "Hg0 mi
6:00 AM64 °FFog.1 mph100%29.80 "Hg0 mi
5:00 AM64 °FFog.1 mph100%29.77 "Hg0 mi
4:00 AM63 °FFog.No wind100%29.80 "Hg1 mi
3:00 AM64 °FFog.No wind94%29.80 "Hg1 mi
2:00 AM64 °FFog.No wind100%29.80 "Hg1 mi
1:00 AM66 °FFog.1 mph94%29.83 "Hg2 mi
12:00 AM66 °FFog.1 mph100%29.83 "Hg2 mi
11:00 PM
Fri, Sep 4
66 °FFog.1 mph94%29.86 "Hg2 mi
10:00 PM66 °FFog.1 mph94%29.86 "Hg2 mi
9:00 PM66 °FFog.1 mph94%29.89 "Hg3 mi
8:00 PM66 °FMostly cloudy.1 mph94%29.86 "Hg4 mi
7:00 PM66 °FMostly cloudy.3 mph94%29.83 "Hg4 mi
6:00 PM66 °FMore clouds than sun.6 mph94%29.83 "Hg5 mi
5:00 PM66 °FLight rain. Fog.3 mph94%29.83 "Hg2 mi
4:00 PM66 °FLight rain. Fog.3 mph94%29.86 "Hg2 mi
3:00 PM66 °FLight rain. Fog.3 mph94%29.86 "Hg2 mi
2:00 PM66 °FLight rain. Fog.3 mph94%29.86 "Hg2 mi
1:00 PM66 °FLight rain. Fog.6 mph94%29.89 "Hg1 mi
12:00 PM66 °FLight rain. More clouds than sun.6 mph94%29.89 "Hg4 mi
11:00 AM68 °FLight rain. Fog.3 mph88%29.92 "Hg2 mi
Weather by CustomWeather, © 2015

See weather overviewHow to use our weather pages